Wind_Speed
4 4 4 5 5 5 5 5 5 5 5 5 5 5 5 6 6 7 7 6 6 6 6 6 7 7 7 6 6 7 7 8 9 9 9 9 9 9 10 10 10 10 10
4 5 5 5 5 6 5 5 5 6 6 6 6 6 7 7 7 7 7 7 7 7 7 7 7 7 7 6 7 7 8 9 9 10 10 10 11 11 11 11 11 11 11
4 4 5 5 5 5 5 5 6 6 7 6 7 7 8 8 7 7 7 7 8 8 7 7 7 7 7 8 7 9 10 10 10 10 11 11 12 12 12 12 12 12 12
3 5 5 6 5 5 5 5 6 6 7 7 7 7 8 8 8 8 7 8 8 8 8 8 8 7 7 8 9 10 11 11 11 11 11 12 12 13 13 13 13 13 13
3 4 5 5 4 4 5 6 6 6 6 7 7 8 8 8 8 8 8 8 8 9 9 8 7 8 8 8 9 10 10 12 12 12 12 12 12 12 13 14 14 14 14
3 3 3 4 4 4 5 5 5 5 6 6 7 7 8 8 8 9 10 9 9 9 8 8 8 8 8 8 9 9 9 11 12 13 13 13 12 13 13 13 14 15 15
3 3 3 4 4 4 4 4 5 5 5 6 7 7 7 7 9 10 10 9 9 9 9 9 9 9 9 9 8 9 10 11 12 13 13 14 14 14 14 14 14 15 15
2 3 3 3 3 4 4 4 4 4 5 5 6 7 8 8 8 9 10 10 10 10 10 10 9 9 9 9 10 10 11 12 13 14 15 14 15 14 15 16 15 16 16
2 2 2 2 2 2 3 3 4 4 4 5 6 7 7 8 8 9 9 9 10 10 9 9 9 8 9 9 10 11 11 12 13 13 14 14 14 14 15 15 16 16 16
3 3 3 2 2 2 2 3 3 3 4 5 5 6 7 7 8 8 9 8 9 9 9 9 9 8 9 9 9 10 10 11 12 12 13 14 14 15 15 15 15 16 16
3 3 3 2 2 2 2 3 3 3 3 4 5 6 6 7 7 8 8 8 8 9 9 8 8 8 8 9 9 9 10 11 11 12 12 13 13 13 13 14 14 15 15
3 2 2 2 2 3 3 3 2 3 3 4 5 5 6 6 6 5 6 7 7 8 8 8 8 8 8 9 9 10 10 11 11 12 12 12 13 13 13 14 14 15 15
2 2 2 2 2 3 3 3 3 3 3 3 4 4 5 5 5 5 5 5 6 7 7 8 9 9 9 9 10 10 10 11 11 12 13 13 13 13 14 14 15 15 15
2 2 2 2 3 3 3 4 4 4 4 4 4 4 4 5 5 5 6 6 6 6 7 8 9 9 10 10 10 10 10 11 11 12 12 13 13 13 14 15 15 15 15
2 3 3 3 3 3 4 4 4 4 4 4 4 3 4 5 5 6 6 6 7 7 8 8 9 9 10 10 11 11 11 11 11 11 11 12 12 13 14 15 15 16 16
3 3 3 3 3 4 4 4 4 4 4 4 4 4 4 5 5 6 6 7 7 7 8 9 9 10 10 10 10 11 11 12 12 12 12 12 12 13 14 14 14 15 15
4 3 3 3 4 4 4 4 5 4 4 4 5 5 5 5 6 6 6 7 7 8 8 9 9 9 9 10 10 10 11 11 12 12 13 13 13 13 14 14 14 14 14
4 4 4 4 5 5 5 5 5 5 5 5 6 6 6 6 7 7 7 7 8 8 8 8 9 9 9 9 10 10 11 11 12 13 14 14 14 14 14 15 15 15 15
5 5 5 5 5 6 6 6 6 6 6 7 8 8 8 7 7 8 8 8 8 8 8 9 9 9 9 10 10 10 11 11 12 13 14 14 14 14 14 14 14 15 16
5 6 6 6 6 6 6 7 7 8 8 8 8 9 9 9 9 9 9 9 8 8 9 9 9 9 9 10 10 11 11 11 12 12 12 13 13 14 14 14 14 15 15
7 7 7 7 7 7 7 7 8 9 9 9 9 9 9 9 9 9 9 9 9 9 9 9 9 10 10 10 11 11 12 12 12 12 12 12 12 13 13 14 15 15 15
7 8 8 8 9 9 8 9 10 10 10 10 10 10 10 10 9 9 9 9 9 9 9 10 10 10 11 10 11 11 12 12 12 12 12 12 12 13 13 14 14 15 15
9 8 9 9 9 10 10 11 11 11 11 11 11 12 11 11 10 10 10 10 10 10 10 10 10 10 11 11 11 12 12 12 12 12 12 12 13 13 14 13 14 14 14
10 10 10 10 11 11 12 12 12 12 12 12 13 13 12 11 11 11 11 11 11 11 11 11 12 12 12 12 12 12 12 12 12 12 13 13 13 13 13 13 13 14 14
12 12 12 12 12 12 12 12 12 13 13 13 14 14 13 12 12 12 12 12 12 12 13 13 12 13 13 13 13 13 13 13 13 12 12 13 13 13 13 13 13 14 14
13 13 13 14 13 13 13 13 13 13 13 14 14 14 14 13 13 13 13 13 13 13 14 14 13 13 14 14 14 14 14 14 14 13 13 13 13 13 13 13 14 14 14
Wind_Direction
254 248 245 250 256 259 255 250 254 250 247 243 244 244 240 230 228 221 220 221 225 230 234 237 238 233 233 240 234 229 226 223 221 220 220 221 220 218 217 218 220 222 224
252 248 252 255 256 257 255 255 253 249 249 249 248 244 243 239 234 225 223 224 230 232 235 239 242 240 240 246 242 237 234 229 229 226 224 226 226 227 228 228 230 230 230
255 257 257 257 253 253 255 254 254 255 253 248 248 246 245 241 236 229 225 223 228 231 236 239 246 246 246 244 247 246 240 235 236 232 231 231 230 229 232 233 235 235 235
270 263 260 260 256 259 261 257 257 257 252 245 245 244 242 238 239 234 232 230 232 236 241 242 245 244 248 247 246 250 245 235 230 232 232 233 233 234 235 237 238 239 240
293 281 265 263 258 266 266 262 260 257 249 243 242 242 241 239 237 236 236 238 237 238 241 243 244 240 246 251 253 251 238 229 227 228 233 235 235 235 239 240 240 240 242
304 299 284 280 278 273 268 265 262 259 252 244 243 241 242 242 241 243 242 240 240 238 237 237 243 242 244 246 250 247 237 234 234 233 235 236 238 240 242 242 242 239 242
326 315 293 280 270 264 259 257 257 256 249 245 245 246 247 245 245 245 242 239 240 239 240 242 242 244 248 246 245 245 237 240 242 240 239 240 242 244 243 242 244 243 245
335 332 311 292 267 259 255 258 255 257 253 251 252 253 260 256 253 252 244 242 240 242 244 248 244 244 247 245 245 247 245 245 244 247 243 243 245 246 245 244 245 247 247
346 340 326 308 298 278 258 251 253 260 265 260 258 262 262 263 262 256 248 245 240 241 242 243 241 244 250 251 250 247 246 248 248 248 247 246 246 246 247 247 247 249 249
338 332 332 322 304 292 283 276 264 263 265 264 263 263 270 266 262 260 252 250 245 245 244 242 239 244 251 252 251 249 248 248 250 249 250 250 249 249 250 251 249 249 251
340 336 334 334 322 313 312 305 287 276 272 278 277 273 282 276 269 259 260 255 251 249 247 242 243 246 250 252 254 253 250 251 249 250 253 253 253 255 254 252 251 253 254
338 340 339 331 334 335 337 328 305 296 288 286 290 281 285 288 282 263 261 257 255 254 251 250 250 253 254 255 259 258 254 251 249 250 254 255 255 256 256 253 252 254 255
339 346 346 332 330 331 334 331 318 306 294 296 299 297 294 297 284 268 265 264 267 264 259 256 257 258 255 253 257 259 258 253 250 251 252 254 256 256 255 252 253 255 258
321 329 335 336 327 321 320 321 318 317 313 313 316 305 300 295 281 272 271 269 267 267 267 265 261 261 261 262 260 261 263 258 256 255 254 255 256 256 256 254 254 256 255
304 308 315 324 324 320 319 319 320 324 322 319 315 307 303 294 285 276 273 268 265 266 268 269 267 262 263 263 265 264 260 259 258 258 256 255 256 256 258 259 259 259 257
300 300 303 314 319 318 315 315 317 321 319 309 309 304 295 290 289 285 278 274 272 269 270 269 267 265 265 266 265 264 262 261 260 260 258 256 257 258 259 259 259 260 258
291 296 300 302 307 311 313 312 314 318 315 306 305 303 295 290 290 288 282 278 277 274 273 269 266 268 267 265 264 264 264 261 261 262 260 262 260 259 259 259 260 260 260
287 290 293 297 303 306 306 305 309 309 309 307 306 305 297 290 291 291 285 279 279 277 272 266 265 266 266 265 265 266 265 263 263 262 262 262 261 260 261 260 260 260 262
288 290 291 295 299 303 303 302 301 303 306 306 304 303 298 292 291 289 288 281 279 275 269 267 268 270 269 268 268 270 268 267 266 265 264 263 263 262 263 261 259 260 262
291 290 291 294 295 298 299 296 295 297 300 304 304 301 300 294 291 287 287 281 278 274 270 268 269 269 270 271 271 271 272 271 270 269 266 264 265 266 265 263 260 261 263
289 290 291 292 293 294 296 296 295 297 299 301 301 300 301 297 292 287 288 285 280 276 274 272 270 270 270 271 272 271 272 272 272 268 266 266 267 268 267 265 263 264 265
287 287 287 287 287 290 295 298 297 296 298 299 301 302 301 298 294 290 289 288 284 277 274 272 270 270 269 270 272 272 272 272 274 270 267 267 267 268 269 270 266 265 267
282 284 286 286 287 291 298 299 298 296 295 296 295 297 297 297 293 291 289 287 284 281 278 274 272 271 270 270 271 273 273 272 275 273 270 269 269 270 271 271 267 264 264
279 280 284 287 289 293 296 295 297 298 297 296 295 296 295 293 290 287 286 284 281 279 278 274 272 271 270 270 271 272 272 270 271 275 273 271 270 269 268 267 268 266 265
277 279 281 285 288 292 294 293 294 295 295 294 292 291 293 292 290 288 285 283 280 278 276 276 273 270 269 268 268 270 270 268 268 270 274 274 270 268 267 267 269 268 267
279 281 282 284 287 290 293 295 295 295 294 293 290 289 289 289 289 289 286 283 280 277 275 275 272 270 269 267 266 268 270 270 268 268 271 273 270 271 269 270 271 272 271
Height
5871 5870 5870 5870 5870 5870 5870 5870 5869 5869 5869 5869 5869 5869 5869 5869 5869 5870 5870 5870 5870 5871 5871 5871 5871 5871 5872 5872 5872 5872 5873 5873 5874 5875 5876 5877 5877 5878 5879 5880 5880 5881 5881
5870 5869 5869 5869 5869 5868 5868 5868 5868 5868 5868 5868 5868 5868 5868 5868 5868 5868 5868 5869 5869 5870 5870 5870 5870 5870 5870 5870 5870 5870 5871 5871 5872 5873 5874 5875 5876 5876 5877 5878 5879 5880 5880
5868 5868 5868 5868 5867 5867 5867 5867 5867 5867 5867 5867 5867 5867 5867 5867 5867 5867 5867 5867 5868 5868 5868 5869 5869 5869 5869 5869 5868 5868 5868 5869 5870 5871 5872 5873 5874 5875 5876 5876 5877 5878 5879
5867 5867 5867 5866 5866 5866 5865 5865 5865 5865 5865 5865 5865 5865 5865 5865 5865 5866 5866 5866 5866 5867 5867 5867 5867 5868 5867 5867 5866 5865 5865 5866 5868 5870 5871 5871 5872 5873 5874 5874 5875 5876 5877
5866 5866 5865 5865 5864 5864 5864 5864 5864 5864 5864 5864 5864 5864 5864 5864 5864 5864 5865 5865 5865 5865 5865 5865 5865 5866 5865 5865 5864 5862 5861 5863 5866 5868 5869 5869 5870 5871 5872 5872 5873 5874 5875
5865 5864 5864 5864 5863 5863 5863 5863 5863 5862 5862 5862 5862 5862 5862 5862 5862 5863 5863 5863 5863 5863 5863 5863 5864 5864 5864 5863 5863 5861 5861 5863 5865 5866 5867 5868 5868 5869 5870 5870 5871 5872 5873
5865 5864 5863 5863 5862 5862 5862 5862 5861 5861 5861 5861 5861 5861 5861 5861 5861 5861 5861 5861 5862 5862 5862 5862 5862 5862 5862 5862 5862 5861 5862 5863 5864 5864 5865 5866 5866 5867 5867 5868 5869 5869 5870
5864 5863 5863 5862 5862 5861 5861 5861 5861 5860 5860 5860 5860 5859 5859 5859 5859 5859 5859 5859 5860 5860 5860 5860 5860 5860 5860 5860 5860 5861 5861 5861 5862 5862 5862 5863 5864 5864 5865 5865 5866 5866 5867
5864 5863 5862 5862 5861 5861 5860 5860 5860 5860 5859 5859 5858 5858 5857 5857 5857 5857 5858 5858 5858 5858 5858 5858 5858 5858 5859 5859 5859 5859 5859 5859 5860 5860 5860 5861 5861 5862 5862 5863 5863 5864 5864
5863 5863 5862 5861 5861 5860 5860 5859 5859 5859 5858 5858 5857 5857 5856 5855 5855 5856 5856 5856 5856 5856 5856 5856 5857 5857 5857 5857 5857 5857 5857 5857 5857 5857 5858 5858 5858 5859 5859 5860 5860 5861 5861
5863 5863 5862 5861 5860 5860 5859 5859 5858 5858 5857 5857 5856 5855 5855 5854 5853 5854 5854 5854 5854 5854 5855 5855 5855 5855 5855 5855 5855 5855 5855 5855 5855 5856 5856 5856 5856 5856 5856 5857 5858 5858 5859
5863 5862 5862 5861 5860 5860 5859 5858 5858 5857 5857 5856 5855 5854 5853 5852 5851 5851 5852 5853 5853 5853 5853 5853 5853 5853 5853 5853 5853 5853 5853 5853 5853 5853 5854 5854 5854 5854 5854 5854 5855 5855 5856
5863 5862 5861 5861 5860 5859 5859 5858 5857 5856 5856 5855 5854 5854 5853 5852 5851 5850 5851 5851 5851 5851 5851 5851 5851 5851 5851 5851 5851 5851 5851 5851 5851 5851 5851 5851 5851 5851 5851 5852 5852 5852 5853
5862 5862 5861 5860 5860 5859 5858 5858 5857 5856 5855 5854 5853 5853 5852 5851 5850 5850 5850 5850 5850 5850 5850 5850 5849 5849 5849 5849 5849 5849 5849 5849 5849 5849 5849 5849 5849 5849 5849 5849 5849 5849 5849
5862 5861 5861 5860 5859 5858 5858 5857 5856 5855 5854 5853 5853 5852 5851 5851 5850 5849 5849 5848 5848 5848 5848 5848 5847 5847 5847 5847 5847 5847 5847 5847 5847 5846 5846 5846 5846 5846 5846 5846 5846 5846 5846
5861 5861 5860 5859 5858 5858 5857 5856 5855 5854 5853 5852 5852 5851 5850 5849 5849 5848 5848 5847 5847 5846 5846 5846 5845 5845 5845 5845 5845 5845 5844 5844 5844 5844 5844 5843 5843 5843 5843 5843 5842 5842 5843
5860 5860 5859 5859 5858 5857 5856 5855 5854 5853 5852 5851 5850 5849 5849 5848 5847 5847 5846 5846 5845 5844 5844 5843 5843 5843 5843 5842 5842 5842 5842 5842 5841 5841 5841 5841 5840 5840 5840 5839 5839 5839 5839
5859 5859 5858 5858 5857 5856 5855 5854 5853 5852 5851 5850 5849 5848 5847 5846 5845 5845 5844 5843 5843 5842 5842 5841 5841 5841 5841 5840 5840 5840 5839 5839 5839 5838 5838 5838 5837 5837 5837 5836 5836 5836 5836
5858 5858 5857 5857 5856 5855 5854 5853 5852 5851 5850 5849 5848 5847 5846 5844 5843 5843 5842 5841 5841 5840 5840 5840 5839 5839 5838 5838 5838 5837 5837 5837 5836 5835 5835 5835 5834 5834 5834 5833 5833 5833 5833
5857 5856 5856 5855 5855 5854 5853 5852 5851 5850 5848 5847 5846 5845 5844 5842 5841 5840 5840 5839 5838 5838 5837 5837 5837 5836 5836 5836 5835 5835 5834 5834 5833 5832 5832 5832 5831 5831 5830 5830 5830 5829 5829
5855 5855 5854 5854 5853 5852 5851 5850 5849 5848 5847 5845 5844 5843 5841 5840 5839 5838 5837 5836 5836 5835 5835 5834 5834 5833 5833 5833 5833 5832 5831 5831 5830 5830 5829 5828 5828 5827 5827 5826 5826 5826 5825
5854 5853 5852 5852 5851 5850 5849 5848 5847 5846 5844 5843 5841 5840 5839 5837 5836 5835 5835 5834 5833 5832 5832 5831 5831 5830 5830 5830 5830 5829 5829 5828 5827 5826 5826 5825 5825 5824 5824 5823 5822 5822 5822
5852 5851 5850 5850 5849 5848 5847 5846 5844 5843 5842 5840 5839 5837 5836 5834 5833 5832 5831 5831 5830 5829 5829 5828 5828 5827 5827 5827 5827 5827 5826 5825 5824 5824 5823 5822 5822 5821 5820 5820 5819 5818 5818
5850 5849 5848 5847 5847 5845 5844 5843 5842 5840 5839 5837 5836 5834 5833 5831 5830 5829 5828 5827 5827 5826 5826 5825 5825 5824 5824 5824 5823 5823 5823 5822 5822 5821 5820 5819 5818 5818 5817 5816 5816 5815 5815
5847 5846 5846 5845 5844 5843 5841 5840 5839 5837 5836 5834 5833 5831 5830 5828 5827 5826 5825 5824 5823 5823 5822 5821 5821 5821 5820 5820 5820 5819 5819 5818 5818 5817 5817 5816 5815 5814 5814 5813 5812 5812 5811
5844 5844 5843 5842 5841 5840 5838 5837 5835 5834 5832 5831 5829 5828 5827 5825 5824 5822 5821 5820 5820 5819 5818 5817 5817 5817 5816 5816 5816 5815 5815 5815 5814 5814 5813 5812 5811 5811 5810 5810 5809 5808 5807